Change the Weather History Date:

Tuesday, March 20, 2012

  Actual Average Record
Temperature  
Mean Temperature 32 °F 37 °F  
Max Temperature 42 °F 47 °F 66 °F (1999)
Min Temperature 22 °F 27 °F -12 °F (1913)
Degree Days  
Heating Degree Days 33 28  
Month to date heating degree days 585 631  
Since 1 July heating degree days 6039 6483  
Cooling Degree Days 0 0  
Month to date cooling degree days 0 0  
Year to date cooling degree days 0 0  
Moisture  
Dew Point 28 °F    
Average Humidity 80    
Maximum Humidity 96    
Minimum Humidity 63    
Precipitation  
Precipitation 0.07 in 0.04 in 0.61 in (1953)
Month to date precipitation 0.76 0.70  
Year to date precipitation 3.17 3.00  
Snow  
Snow T in - - ()
Month to date snowfall 1.0  
Year to date snowfall 24.0  
Since 1 July snowfall 30.3  
Snow Depth 0.00 in    
Sea Level Pressure  
Sea Level Pressure 29.69 in    
Wind  
Wind Speed 11 mph (South)    
Max Wind Speed 28 mph    
Max Gust Speed 37 mph    
Visibility 9 miles    
Events Rain , Snow    
T = Trace of Precipitation, MM = Missing Value Source: NWS Daily Summary

Daily Weather History Graph

Daily Weather History Graph

Search for Another Location

Airport or City:

Trip Planner

Search our weather history database for the weather conditions in past years. The results will help you decide how hot, cold, wet, or windy it might be!

Date:

Astronomy

Mar. 20, 2012 Rise Set
Actual Time 7:38 AM MDT 7:50 PM MDT
Civil Twilight 7:07 AM MDT 8:21 PM MDT
Nautical Twilight 6:30 AM MDT 8:58 PM MDT
Astronomical Twilight 5:53 AM MDT 9:36 PM MDT
Moon 6:29 AM MDT (3/20) 6:19 PM MDT (3/20)
Length of Visible Light 13h 14m
Length of Day
12h 12m
Waning Crescent, 3% of the Moon is Illuminated
Mar 20
Waning Crescent
Mar 22
New
Mar 30
First Quarter
Apr 6
Full
Apr 13
Last Quarter

Hourly Weather History & Observations

Time (MDT) Temp. Windchill Dew Point Humidity Pressure Visibility Wind Dir Wind Speed Gust Speed Precip Events Conditions
12:55 AM 25.0 °F 19.3 °F 15.1 °F 66% 29.86 in 10.0 mi South 4.6 mph - N/A   Partly Cloudy
1:55 AM 26.1 °F 18.4 °F 17.1 °F 69% 29.85 in 10.0 mi SSE 6.9 mph - N/A   Clear
2:55 AM 21.9 °F 15.7 °F 16.0 °F 78% 29.85 in 10.0 mi SSW 4.6 mph - N/A   Clear
3:55 AM 28.0 °F 20.8 °F 19.0 °F 69% 29.82 in 10.0 mi SSW 6.9 mph - N/A   Overcast
4:55 AM 28.0 °F - 19.0 °F 69% 29.81 in 10.0 mi Calm Calm - N/A   Overcast
5:55 AM 30.0 °F 22.4 °F 19.9 °F 66% 29.78 in 10.0 mi SSE 8.1 mph - N/A   Overcast
6:55 AM 30.2 °F 21.9 °F 19.4 °F 64% 29.70 in 10.0 mi SSE 9.2 mph - N/A   Overcast
7:55 AM 30.0 °F 23.2 °F 19.9 °F 66% 29.75 in 10.0 mi South 6.9 mph - N/A   Overcast
8:31 AM 30.2 °F 23.4 °F 19.4 °F 64% 29.69 in 9.0 mi South 6.9 mph - 0.00 in Snow Light Snow
8:55 AM 30.0 °F 20.5 °F 23.0 °F 75% 29.75 in 3.0 mi SSE 11.5 mph - 0.00 in Snow Light Snow
9:03 AM 30.2 °F 21.3 °F 24.8 °F 80% 29.67 in 1.0 mi SE 10.4 mph - 0.00 in Snow Light Snow
9:55 AM 30.0 °F 18.7 °F 26.1 °F 85% 29.72 in 1.0 mi SSE 16.1 mph - 0.01 in Snow Light Snow
10:21 AM 30.2 °F 18.9 °F 26.6 °F 86% 29.63 in 7.0 mi SSE 16.1 mph 20.7 mph 0.00 in Snow Light Snow
10:55 AM 30.9 °F 19.4 °F 27.0 °F 85% 29.70 in 4.0 mi SSE 17.3 mph - 0.00 in Snow Light Snow
11:55 AM 33.1 °F 23.0 °F 26.1 °F 75% 29.67 in 10.0 mi SSE 15.0 mph 24.2 mph 0.00 in   Overcast
12:55 PM 37.9 °F 27.6 °F 26.1 °F 62% 29.62 in 10.0 mi South 20.7 mph 36.8 mph N/A   Overcast
1:23 PM 37.4 °F 26.4 °F 28.4 °F 70% 29.55 in 5.0 mi South 23.0 mph 32.2 mph 0.00 in Snow Light Snow
1:55 PM 37.9 °F 27.6 °F 28.0 °F 68% 29.60 in 8.0 mi South 20.7 mph 28.8 mph 0.00 in Snow Light Snow
2:27 PM 39.2 °F 30.8 °F 28.4 °F 65% 29.54 in 10.0 mi South 15.0 mph 25.3 mph 0.00 in   Overcast
2:46 PM 41.0 °F 31.9 °F 30.2 °F 65% 29.53 in 10.0 mi SSW 19.6 mph 26.5 mph 0.00 in Rain Light Rain
2:55 PM 41.0 °F 34.3 °F 30.9 °F 67% 29.60 in 10.0 mi South 11.5 mph 23.0 mph 0.00 in   Overcast
3:15 PM 39.2 °F 28.5 °F 33.8 °F 81% 29.54 in 10.0 mi SSW 24.2 mph - 0.00 in Rain Light Rain
3:38 PM 41.0 °F 33.9 °F 33.8 °F 76% 29.54 in 10.0 mi SSW 12.7 mph - 0.00 in   Overcast
3:55 PM 41.0 °F 31.6 °F 32.0 °F 70% 29.60 in 10.0 mi SSW 20.7 mph 27.6 mph 0.00 in Rain Light Rain
4:21 PM 39.2 °F 30.2 °F 33.8 °F 81% 29.56 in 10.0 mi SSW 17.3 mph - 0.00 in Rain Light Rain
5:35 PM 39.2 °F 32.0 °F 33.8 °F 81% 29.57 in 10.0 mi SSW 11.5 mph 23.0 mph 0.01 in Rain Light Rain
5:55 PM 39.0 °F 30.6 °F 33.1 °F 79% 29.63 in 10.0 mi SW 15.0 mph 27.6 mph 0.01 in Rain Light Rain
6:02 PM 39.2 °F 30.5 °F 33.8 °F 81% 29.58 in 10.0 mi SW 16.1 mph 21.9 mph 0.00 in Rain Light Rain
6:55 PM 37.0 °F 32.4 °F 34.0 °F 89% 29.69 in 9.0 mi South 5.8 mph - 0.03 in Rain Light Rain
7:04 PM 37.4 °F 27.5 °F 33.8 °F 87% 29.63 in 10.0 mi SSW 18.4 mph 24.2 mph 0.00 in   Overcast
7:55 PM 34.0 °F 24.2 °F 30.9 °F 89% 29.73 in 9.0 mi SSW 15.0 mph 23.0 mph 0.00 in   Overcast
8:55 PM 34.0 °F 26.6 °F 32.0 °F 92% 29.77 in 10.0 mi South 9.2 mph - N/A   Overcast
9:55 PM 35.1 °F 25.5 °F 33.1 °F 92% 29.79 in 10.0 mi South 15.0 mph - 0.00 in Snow Light Snow
10:05 PM 33.8 °F 24.3 °F 33.8 °F 100% 29.73 in 9.0 mi SSW 13.8 mph - 0.00 in Snow Light Snow
10:17 PM 33.8 °F 26.4 °F 32.0 °F 93% 29.74 in 4.0 mi SW 9.2 mph - 0.01 in Snow Light Snow
10:36 PM 33.8 °F 28.6 °F 33.8 °F 100% 29.75 in 10.0 mi SSW 5.8 mph - 0.01 in   Overcast
10:55 PM 34.0 °F 28.8 °F 32.0 °F 92% 29.83 in 10.0 mi South 5.8 mph - 0.01 in Snow Light Snow
11:05 PM 33.8 °F - 32.0 °F 93% 29.76 in 9.0 mi Calm Calm - N/A   Overcast
11:20 PM 35.6 °F 27.5 °F 30.2 °F 81% 29.76 in 10.0 mi South 11.5 mph 17.3 mph 0.00 in   Overcast
11:55 PM 34.0 °F 28.8 °F 30.9 °F 89% 29.84 in 9.0 mi South 5.8 mph - 0.00 in   Overcast